{"data":{"norad_id":53991,"epoch":"2026-09-20T20:24:36.335520Z","epoch_age_seconds":56782,"freshness":"FRESH","line1":"1 53991U 22125AD  26263.85042055  .00000507  00000+0  25450-4 0  9998","line2":"2 53991  53.1625  36.2041 0001128  80.1687 279.9443 15.35402646219218","mean_motion":15.35402646,"eccentricity":0.0001128,"inclination_deg":53.1625,"raan_deg":36.2041,"arg_perigee_deg":80.1687,"mean_anomaly_deg":279.9443,"bstar":2.545e-5,"rev_number":21921,"period_min":93.786473779465,"perigee_km":458.95347600818,"apogee_km":460.49609762729,"semimajor_km":6837.8617868177,"source":"CELESTRAK","updated_at":"2026-09-21T09:00:33.044397Z"}}